Weather History for RPMZ - October, 2012

Change the Weather History Date:

Wednesday, October 17, 2012

  Actual Average Record
Temperature  
Mean Temperature 85 °F -  
Max Temperature 93 °F 89 °F - ()
Min Temperature 77 °F 74 °F - ()
Cooling Degree Days 20    
Growing Degree Days 35 (Base 50)    
Moisture  
Dew Point 76 °F    
Average Humidity 75    
Maximum Humidity 94    
Minimum Humidity 53    
Precipitation  
Precipitation 0.00 in 0.16 in - ()
Sea Level Pressure  
Sea Level Pressure 29.88 in    
Wind  
Wind Speed 2 mph ()    
Max Wind Speed 12 mph    
Max Gust Speed -    
Visibility 6.1 miles    
Events      
T = Trace of Precipitation, MM = Missing Value Source: Averaged Metar Reports

Daily Weather History Graph

Daily Weather History Graph

Search for Another Location

Airport or City:

Trip Planner

Search our weather history database for the weather conditions in past years. The results will help you decide how hot, cold, wet, or windy it might be!

Date:

Astronomy

Oct. 17, 2012 Rise Set
Actual Time 5:38 AM PHT 5:35 PM PHT
Civil Twilight 5:17 AM PHT 5:56 PM PHT
Nautical Twilight 4:52 AM PHT 6:21 PM PHT
Astronomical Twilight 4:28 AM PHT 6:45 PM PHT
Moon 7:02 AM PHT (10/17) 7:12 PM PHT (10/17)
Length of Visible Light 12h 39m
Length of Day
11h 57m
Waxing Crescent, 4% of the Moon is Illuminated
Oct 17
Waxing Crescent
Oct 22
First Quarter
Oct 30
Full
Nov 7
Last Quarter
Nov 14
New

Hourly Weather History & Observations

Time (PHT) Temp. Heat Index Dew Point Humidity Pressure Visibility Wind Dir Wind Speed Gust Speed Precip Events Conditions
2:00 AM 77.0 °F - 75.2 °F 94% 29.89 in 6.2 mi Calm Calm - N/A   Partly Cloudy
5:00 AM 78 °F - 74 °F 85% 29.86 in 6 mi NE 4.5 mph - -   Haze
5:00 AM 77.0 °F - 75.2 °F 94% 29.86 in 6.2 mi NE 4.6 mph - N/A   Partly Cloudy
6:00 AM 77.0 °F - 73.4 °F 89% 29.89 in 6.2 mi Calm Calm - N/A   Partly Cloudy
7:00 AM 78.8 °F - 73.4 °F 83% 29.92 in 6.2 mi NE 2.3 mph - N/A   Scattered Clouds
8:00 AM 84 °F - 76 °F 72% 29.92 in 6 mi East 2.2 mph - -   Haze
8:00 AM 84.2 °F 94.1 °F 77.0 °F 79% 29.92 in 6.2 mi East 2.3 mph - N/A   Mostly Cloudy
9:00 AM 87.8 °F 99.7 °F 77.0 °F 70% 29.92 in 6.2 mi Calm Calm - N/A   Mostly Cloudy
10:00 AM 89.6 °F 102.2 °F 77.0 °F 66% 29.92 in 6.2 mi Calm Calm - N/A   Mostly Cloudy
11:00 AM 91 °F - 78 °F 57% 29.91 in 6 mi Calm Calm - -   Haze
11:00 AM 91.4 °F 105.1 °F 77.0 °F 63% 29.89 in 6.2 mi South 4.6 mph - N/A   Mostly Cloudy
12:00 PM 91.4 °F 105.1 °F 77.0 °F 63% 29.89 in 6.2 mi South 4.6 mph - N/A   Mostly Cloudy
1:00 PM 91.4 °F 105.1 °F 77.0 °F 63% 29.86 in 6.2 mi South 6.9 mph - N/A   Mostly Cloudy
2:00 PM 92 °F - 77 °F 53% 29.84 in 6 mi SSW 11.2 mph - -   Partly Cloudy
2:00 PM 91.4 °F 105.1 °F 77.0 °F 63% 29.86 in 5.6 mi SSW 11.5 mph - N/A   Mostly Cloudy
3:00 PM 87.8 °F 102.5 °F 78.8 °F 75% 29.83 in 6.2 mi WSW 4.6 mph - N/A   Mostly Cloudy
4:00 PM 89.6 °F 104.7 °F 78.8 °F 70% 29.83 in 6.2 mi Calm Calm - N/A   Scattered Clouds
5:00 PM 87 °F - 78 °F 69% 29.84 in 6 mi WSW 4.5 mph - -   Scattered Clouds
5:00 PM 87.8 °F 102.5 °F 78.8 °F 75% 29.83 in 6.2 mi WSW 4.6 mph - N/A   Scattered Clouds
6:00 PM 84.2 °F 94.1 °F 77.0 °F 79% 29.86 in 6.2 mi Calm Calm - N/A   Scattered Clouds
8:00 PM 81 °F - 76 °F 79% 29.88 in 6 mi Calm Calm - -   Haze
8:00 PM 80.6 °F 86.2 °F 75.2 °F 84% 29.89 in 6.2 mi Calm Calm - N/A   Scattered Clouds
11:00 PM 79 °F - 76 °F 88% 29.90 in 6 mi Calm Calm - -   Haze
11:00 PM 78.8 °F - 75.2 °F 89% 29.92 in 6.2 mi Calm Calm - N/A   Partly Cloudy